User: anonymous   Login
Location: *
(50.3440°N, 18.6237°E)
Time: 16:19:55
(UTC+00:00)
Language:

Cosmos 1624 Rocket - Orbit

View from above orbital plane
View from above orbital plane
View from above satellite
View from above satellite

Ground track
Ground track

The orbit data is extracted from the following two-line orbital elements,

1 15483U 85006B   21059.20035940  .00000070  00000-0  32707-4 0  9990
2 15483  74.0463  33.6542 0017855  38.3946 332.6503 14.36354145890666
Epoch (UTC): 28 February 2021 04:48:31
Eccentricity: 0.0017855
inclination: 74.0463°
perigee height: 758 km
apogee height: 783 km
right ascension of ascending node: 33.6542°
argument of perigee: 38.3946°
revolutions per day: 14.36354145
mean anomaly at epoch: 332.6503°
orbit number at epoch: 89066

The dashed part of the orbit path shows where the satellite is in the earth's shadow,  

DLR